Location: La Chapelle
(48.3135°N, 1.3085°W)
Time: 08:54:57
(UTC+00:00)

USA 281 - Pass Details

Date: 03 March 2021
Orbit: 1076 x 1083 km, 106.0° (Epoch: 03 April)

Event Time Altitude Azimuth Distance (km) Brightness Sun altitude
Exits shadow 21:34:29 35° 13° (NNE) 1,683 4.3 -35.8°
Drops below altitude 10° 21:38:39 10° 344° (NNW) 2,927 6.0 -36.4°
Sets 21:41:17 0° 338° (NNW) 3,887 6.9 -36.7°
